sat.trackr.live / text

‹ back to catalog

STARLINK-37659

NORAD 69139 · 2026-110R

PAYLOAD ACTIVE UNKNOWN

§ Identity

Operator
Country
US
Launch date
2026-05-20
Launch site
AFWTR
Launch vehicle
Mass (kg)
RCS (m²)

Purposes: comms

External: N2YO · Heavens-Above · Gunter

§ Orbital elements

Epoch: 2026-09-19T07:10:28.322688Z

Period
93.91 min
Inclination
97.2879°
Eccentricity
0.0000654
Mean motion
15.33463603 rev/d
Perigee alt
465.0 km
Apogee alt
465.9 km
Semi-major
6,843.6 km
B*
4.3505e-4
RAAN
97.3947°
Arg perigee
108.8618°
Mean anomaly
251.2696°
Rev number
2,003

§ Raw data

STARLINK-376591 69139U 26110R   26262.29893892  .00014004  00000+0  43505-3 0  99942 69139  97.2879  97.3947 0000654 108.8618 251.2696 15.33463603 20038

JSON: /api/v1/satellites/69139 · /tle

For live sub-satellite position, see the globe view (requires WebGL).

§ Visibility from observer

Set your observer location to see the next 7 days of passes ≥ 10°. The values pass through the URL so the page stays shareable.

No JS? Fill the form by hand. The geolocation button needs JavaScript.